Year,Month,Day,Hour,Minute,Value (Times are PST for temperature in C)
2014,07,01,00,00,16.00
2014,07,01,00,01,15.90
2014,07,01,00,02,15.90
2014,07,01,00,03,15.90
2014,07,01,00,04,15.90
2014,07,01,00,05,15.90
2014,07,01,00,06,15.90
2014,07,01,00,07,15.90
2014,07,01,00,08,15.90
2014,07,01,00,09,15.90
2014,07,01,00,10,15.90
2014,07,01,00,11,15.90
2014,07,01,00,12,15.80
2014,07,01,00,13,15.80
2014,07,01,00,14,15.80
2014,07,01,00,15,15.80
2014,07,01,00,16,15.80
2014,07,01,00,17,15.80
2014,07,01,00,18,15.80
2014,07,01,00,19,15.80
2014,07,01,00,20,15.80
2014,07,01,00,21,15.80
2014,07,01,00,22,15.80
2014,07,01,00,23,15.80
2014,07,01,00,24,15.80
2014,07,01,00,25,15.80
2014,07,01,00,26,15.80
2014,07,01,00,27,15.80
2014,07,01,00,28,15.80
2014,07,01,00,29,15.80
2014,07,01,00,30,15.80
2014,07,01,00,31,15.80
2014,07,01,00,32,15.80
2014,07,01,00,33,15.80
2014,07,01,00,34,15.80
2014,07,01,00,35,15.80
2014,07,01,00,36,15.80
2014,07,01,00,37,15.80
2014,07,01,00,38,15.80
2014,07,01,00,39,15.80
2014,07,01,00,40,15.80
2014,07,01,00,41,15.80
2014,07,01,00,42,15.80
2014,07,01,00,43,15.80
2014,07,01,00,44,15.80
2014,07,01,00,45,15.80
2014,07,01,00,46,15.80
2014,07,01,00,47,15.70
2014,07,01,00,48,15.70
2014,07,01,00,49,15.70
2014,07,01,00,50,15.70
2014,07,01,00,51,15.70
2014,07,01,00,52,15.70
2014,07,01,00,53,15.70
2014,07,01,00,54,15.70
2014,07,01,00,55,15.70
2014,07,01,00,56,15.60
2014,07,01,00,57,15.60
2014,07,01,00,58,15.60
2014,07,01,00,59,15.60
2014,07,01,01,00,15.60
2014,07,01,01,01,15.60
2014,07,01,01,02,15.60
2014,07,01,01,03,15.60
2014,07,01,01,04,15.60
2014,07,01,01,05,15.50
2014,07,01,01,06,15.50
2014,07,01,01,07,15.50
2014,07,01,01,08,15.50
2014,07,01,01,09,15.50
2014,07,01,01,10,15.50
2014,07,01,01,11,15.50
2014,07,01,01,12,15.50
2014,07,01,01,13,15.40
2014,07,01,01,14,15.40
2014,07,01,01,15,15.50
2014,07,01,01,16,15.50
2014,07,01,01,17,15.50
2014,07,01,01,18,15.50
2014,07,01,01,19,15.50
2014,07,01,01,20,15.50
2014,07,01,01,21,15.50
2014,07,01,01,22,15.50
2014,07,01,01,23,15.50
2014,07,01,01,24,15.50
2014,07,01,01,25,15.50
2014,07,01,01,26,15.50
2014,07,01,01,27,15.50
2014,07,01,01,28,15.50
2014,07,01,01,29,15.50
2014,07,01,01,30,15.50
2014,07,01,01,31,15.50
2014,07,01,01,32,15.50
2014,07,01,01,33,15.50
2014,07,01,01,34,15.50
2014,07,01,01,35,15.40
2014,07,01,01,36,15.40
2014,07,01,01,37,15.40
2014,07,01,01,38,15.40
2014,07,01,01,39,15.40
2014,07,01,01,40,15.40
2014,07,01,01,41,15.40
2014,07,01,01,42,15.40
2014,07,01,01,43,15.40
2014,07,01,01,44,15.40
2014,07,01,01,45,15.40
2014,07,01,01,46,15.40
2014,07,01,01,47,15.30
2014,07,01,01,48,15.30
2014,07,01,01,49,15.30
2014,07,01,01,50,15.30
2014,07,01,01,51,15.30
2014,07,01,01,52,15.30
2014,07,01,01,53,15.30
2014,07,01,01,54,15.30
2014,07,01,01,55,15.30
2014,07,01,01,56,15.30
2014,07,01,01,57,15.20
2014,07,01,01,58,15.20
2014,07,01,01,59,15.20
2014,07,01,02,00,15.20
2014,07,01,02,01,15.20
2014,07,01,02,02,15.20
2014,07,01,02,03,15.20
2014,07,01,02,04,15.20
2014,07,01,02,05,15.20
2014,07,01,02,06,15.10
2014,07,01,02,07,15.10
2014,07,01,02,08,15.10
2014,07,01,02,09,15.10
2014,07,01,02,10,15.10
2014,07,01,02,11,15.10
2014,07,01,02,12,15.10
2014,07,01,02,13,15.10
2014,07,01,02,14,15.00
2014,07,01,02,15,15.00
2014,07,01,02,16,15.00
2014,07,01,02,17,15.00
2014,07,01,02,18,15.00
2014,07,01,02,19,14.90
2014,07,01,02,20,14.90
2014,07,01,02,21,14.90
2014,07,01,02,22,14.90
2014,07,01,02,23,14.90
2014,07,01,02,24,14.90
2014,07,01,02,25,14.90
2014,07,01,02,26,14.90
2014,07,01,02,27,14.80
2014,07,01,02,28,14.80
2014,07,01,02,29,14.80
2014,07,01,02,30,14.80
2014,07,01,02,31,14.80
2014,07,01,02,32,14.70
2014,07,01,02,33,14.70
2014,07,01,02,34,14.70
2014,07,01,02,35,14.70
2014,07,01,02,36,14.60
2014,07,01,02,37,14.60
2014,07,01,02,38,14.60
2014,07,01,02,39,14.50
2014,07,01,02,40,14.50
2014,07,01,02,41,14.50
2014,07,01,02,42,14.40
2014,07,01,02,43,14.40
2014,07,01,02,44,14.40
2014,07,01,02,45,14.40
2014,07,01,02,46,14.30
2014,07,01,02,47,14.30
2014,07,01,02,48,14.30
2014,07,01,02,49,14.30
2014,07,01,02,50,14.20
2014,07,01,02,51,14.20
2014,07,01,02,52,14.20
2014,07,01,02,53,14.20
2014,07,01,02,54,14.10
2014,07,01,02,55,14.10
2014,07,01,02,56,14.10
2014,07,01,02,57,14.10
2014,07,01,02,58,14.10
2014,07,01,02,59,14.00
2014,07,01,03,00,14.00
2014,07,01,03,01,14.00
2014,07,01,03,02,13.90
2014,07,01,03,03,13.90
2014,07,01,03,04,13.90
2014,07,01,03,05,13.90
2014,07,01,03,06,13.90
2014,07,01,03,07,13.90
2014,07,01,03,08,13.90
2014,07,01,03,09,13.90
2014,07,01,03,10,13.90
2014,07,01,03,11,13.90
2014,07,01,03,12,13.90
2014,07,01,03,13,13.90
2014,07,01,03,14,13.90
2014,07,01,03,15,13.90
2014,07,01,03,16,13.90
2014,07,01,03,17,13.80
2014,07,01,03,18,13.80
2014,07,01,03,19,13.80
2014,07,01,03,20,13.80
2014,07,01,03,21,13.80
2014,07,01,03,22,13.80
2014,07,01,03,23,13.70
2014,07,01,03,24,13.70
2014,07,01,03,25,13.70
2014,07,01,03,26,13.70
2014,07,01,03,27,13.70
2014,07,01,03,28,13.60
2014,07,01,03,29,13.60
2014,07,01,03,30,13.60
2014,07,01,03,31,13.60
2014,07,01,03,32,13.60
2014,07,01,03,33,13.50
2014,07,01,03,34,13.50
2014,07,01,03,35,13.50
2014,07,01,03,36,13.40
2014,07,01,03,37,13.40
2014,07,01,03,38,13.40
2014,07,01,03,39,13.40
2014,07,01,03,40,13.40
2014,07,01,03,41,13.40
2014,07,01,03,42,13.30
2014,07,01,03,43,13.30
2014,07,01,03,44,13.30
2014,07,01,03,45,13.30
2014,07,01,03,46,13.30
2014,07,01,03,47,13.30
2014,07,01,03,48,13.20
2014,07,01,03,49,13.20
2014,07,01,03,50,13.20
2014,07,01,03,51,13.20
2014,07,01,03,52,13.20
2014,07,01,03,53,13.20
2014,07,01,03,54,13.20
2014,07,01,03,55,13.10
2014,07,01,03,56,13.10
2014,07,01,03,57,13.10
2014,07,01,03,58,13.10
2014,07,01,03,59,13.10
2014,07,01,04,00,13.00
2014,07,01,04,01,13.00
2014,07,01,04,02,13.00
2014,07,01,04,03,13.00
2014,07,01,04,04,12.90
2014,07,01,04,05,12.90
2014,07,01,04,06,12.90
2014,07,01,04,07,12.90
2014,07,01,04,08,12.90
2014,07,01,04,09,12.90
2014,07,01,04,10,12.90
2014,07,01,04,11,12.80
2014,07,01,04,12,12.80
2014,07,01,04,13,12.80
2014,07,01,04,14,12.80
2014,07,01,04,15,12.80
2014,07,01,04,16,12.80
2014,07,01,04,17,12.80
2014,07,01,04,18,12.80
2014,07,01,04,19,12.70
2014,07,01,04,20,12.70
2014,07,01,04,21,12.70
2014,07,01,04,22,12.70
2014,07,01,04,23,12.70
2014,07,01,04,24,12.70
2014,07,01,04,25,12.70
2014,07,01,04,26,12.70
2014,07,01,04,27,12.70
2014,07,01,04,28,12.70
2014,07,01,04,29,12.70
2014,07,01,04,30,12.80
2014,07,01,04,31,12.80
2014,07,01,04,32,12.80
2014,07,01,04,33,12.80
2014,07,01,04,34,12.80
2014,07,01,04,35,12.80
2014,07,01,04,36,12.80
2014,07,01,04,37,12.80
2014,07,01,04,38,12.80
2014,07,01,04,39,12.80
2014,07,01,04,40,12.80
2014,07,01,04,41,12.80
2014,07,01,04,42,12.80
2014,07,01,04,43,12.80
2014,07,01,04,44,12.80
2014,07,01,04,45,12.80
2014,07,01,04,46,12.80
2014,07,01,04,47,12.80
2014,07,01,04,48,12.80
2014,07,01,04,49,12.80
2014,07,01,04,50,12.80
2014,07,01,04,51,12.80
2014,07,01,04,52,12.80
2014,07,01,04,53,12.80
2014,07,01,04,54,12.80
2014,07,01,04,55,12.80
2014,07,01,04,56,12.80
2014,07,01,04,57,12.80
2014,07,01,04,58,12.80
2014,07,01,04,59,12.80
2014,07,01,05,00,12.80
2014,07,01,05,01,12.80
2014,07,01,05,02,12.80
2014,07,01,05,03,12.80
2014,07,01,05,04,12.80
2014,07,01,05,05,12.80
2014,07,01,05,06,12.80
2014,07,01,05,07,12.80
2014,07,01,05,08,12.80
2014,07,01,05,09,12.80
2014,07,01,05,10,12.80
2014,07,01,05,11,12.70
2014,07,01,05,12,12.70
2014,07,01,05,13,12.70
2014,07,01,05,14,12.70
2014,07,01,05,15,12.70
2014,07,01,05,16,12.70
2014,07,01,05,17,12.60
2014,07,01,05,18,12.60
2014,07,01,05,19,12.60
2014,07,01,05,20,12.60
2014,07,01,05,21,12.60
2014,07,01,05,22,12.60
2014,07,01,05,23,12.60
2014,07,01,05,24,12.60
2014,07,01,05,25,12.60
2014,07,01,05,26,12.60
2014,07,01,05,27,12.60
2014,07,01,05,28,12.60
2014,07,01,05,29,12.60
2014,07,01,05,30,12.60
2014,07,01,05,31,12.60
2014,07,01,05,32,12.60
2014,07,01,05,33,12.60
2014,07,01,05,34,12.60
2014,07,01,05,35,12.60
2014,07,01,05,36,12.60
2014,07,01,05,37,12.60
2014,07,01,05,38,12.60
2014,07,01,05,39,12.60
2014,07,01,05,40,12.60
2014,07,01,05,41,12.60
2014,07,01,05,42,12.60
2014,07,01,05,43,12.60
2014,07,01,05,44,12.60
2014,07,01,05,45,12.60
2014,07,01,05,46,12.60
2014,07,01,05,47,12.60
2014,07,01,05,48,12.60
2014,07,01,05,49,12.60
2014,07,01,05,50,12.50
2014,07,01,05,51,12.50
2014,07,01,05,52,12.50
2014,07,01,05,53,12.50
2014,07,01,05,54,12.50
2014,07,01,05,55,12.50
2014,07,01,05,56,12.50
2014,07,01,05,57,12.40
2014,07,01,05,58,12.40
2014,07,01,05,59,12.40
2014,07,01,06,00,12.40
2014,07,01,06,01,12.40
2014,07,01,06,02,12.40
2014,07,01,06,03,12.40
2014,07,01,06,04,12.40
2014,07,01,06,05,12.40
2014,07,01,06,06,12.40
2014,07,01,06,07,12.40
2014,07,01,06,08,12.40
2014,07,01,06,09,12.40
2014,07,01,06,10,12.40
2014,07,01,06,11,12.40
2014,07,01,06,12,12.40
2014,07,01,06,13,12.50
2014,07,01,06,14,12.40
2014,07,01,06,15,12.50
2014,07,01,06,16,12.50
2014,07,01,06,17,12.50
2014,07,01,06,18,12.60
2014,07,01,06,19,12.60
2014,07,01,06,20,12.60
2014,07,01,06,21,12.60
2014,07,01,06,22,12.60
2014,07,01,06,23,12.70
2014,07,01,06,24,12.70
2014,07,01,06,25,12.80
2014,07,01,06,26,12.80
2014,07,01,06,27,12.90
2014,07,01,06,28,13.00
2014,07,01,06,29,13.00
2014,07,01,06,30,13.10
2014,07,01,06,31,13.20
2014,07,01,06,32,13.30
2014,07,01,06,33,13.30
2014,07,01,06,34,13.40
2014,07,01,06,35,13.40
2014,07,01,06,36,13.50
2014,07,01,06,37,13.50
2014,07,01,06,38,13.60
2014,07,01,06,39,13.60
2014,07,01,06,40,13.70
2014,07,01,06,41,13.80
2014,07,01,06,42,13.90
2014,07,01,06,43,14.00
2014,07,01,06,44,14.10
2014,07,01,06,45,14.10
2014,07,01,06,46,14.20
2014,07,01,06,47,14.40
2014,07,01,06,48,14.40
2014,07,01,06,49,14.50
2014,07,01,06,50,14.60
2014,07,01,06,51,14.70
2014,07,01,06,52,14.80
2014,07,01,06,53,14.90
2014,07,01,06,54,15.00
2014,07,01,06,55,15.10
2014,07,01,06,56,15.20
2014,07,01,06,57,15.30
2014,07,01,06,58,15.40
2014,07,01,06,59,15.50
2014,07,01,07,00,15.70
2014,07,01,07,01,15.80
2014,07,01,07,02,15.90
2014,07,01,07,03,16.00
2014,07,01,07,04,16.10
2014,07,01,07,05,16.20
2014,07,01,07,06,16.30
2014,07,01,07,07,16.50
2014,07,01,07,08,16.60
2014,07,01,07,09,16.70
2014,07,01,07,10,16.80
2014,07,01,07,11,16.90
2014,07,01,07,12,17.10
2014,07,01,07,13,17.20
2014,07,01,07,14,17.30
2014,07,01,07,15,17.40
2014,07,01,07,16,17.50
2014,07,01,07,17,17.60
2014,07,01,07,18,17.70
2014,07,01,07,19,17.80
2014,07,01,07,20,17.90
2014,07,01,07,21,18.00
2014,07,01,07,22,18.10
2014,07,01,07,23,18.20
2014,07,01,07,24,18.30
2014,07,01,07,25,18.40
2014,07,01,07,26,18.50
2014,07,01,07,27,18.60
2014,07,01,07,28,18.70
2014,07,01,07,29,18.70
2014,07,01,07,30,18.80
2014,07,01,07,31,18.90
2014,07,01,07,32,19.00
2014,07,01,07,33,19.10
2014,07,01,07,34,19.20
2014,07,01,07,35,19.30
2014,07,01,07,36,19.30
2014,07,01,07,37,19.40
2014,07,01,07,38,19.50
2014,07,01,07,39,19.50
2014,07,01,07,40,19.60
2014,07,01,07,41,19.60
2014,07,01,07,42,19.70
2014,07,01,07,43,19.70
2014,07,01,07,44,19.80
2014,07,01,07,45,19.80
2014,07,01,07,46,19.90
2014,07,01,07,47,19.90
2014,07,01,07,48,19.90
2014,07,01,07,49,19.90
2014,07,01,07,50,20.00
2014,07,01,07,51,20.00
2014,07,01,07,52,20.00
2014,07,01,07,53,20.10
2014,07,01,07,54,20.10
2014,07,01,07,55,20.20
2014,07,01,07,56,20.20
2014,07,01,07,57,20.20
2014,07,01,07,58,20.30
2014,07,01,07,59,20.30
2014,07,01,08,00,20.30
2014,07,01,08,01,20.30
2014,07,01,08,02,20.40
2014,07,01,08,03,20.40
2014,07,01,08,04,20.40
2014,07,01,08,05,20.40
2014,07,01,08,06,20.50
2014,07,01,08,07,20.50
2014,07,01,08,08,20.50
2014,07,01,08,09,20.60
2014,07,01,08,10,20.60
2014,07,01,08,11,20.60
2014,07,01,08,12,20.60
2014,07,01,08,13,20.60
2014,07,01,08,14,20.70
2014,07,01,08,15,20.70
2014,07,01,08,16,20.70
2014,07,01,08,17,20.70
2014,07,01,08,18,20.70
2014,07,01,08,19,20.80
2014,07,01,08,20,20.80
2014,07,01,08,21,20.80
2014,07,01,08,22,20.80
2014,07,01,08,23,20.90
2014,07,01,08,24,20.90
2014,07,01,08,25,20.90
2014,07,01,08,26,20.90
2014,07,01,08,27,21.00
2014,07,01,08,28,21.00
2014,07,01,08,29,21.00
2014,07,01,08,30,21.00
2014,07,01,08,31,21.10
2014,07,01,08,32,21.10
2014,07,01,08,33,21.10
2014,07,01,08,34,21.10
2014,07,01,08,35,21.10
2014,07,01,08,36,21.10
2014,07,01,08,37,21.10
2014,07,01,08,38,21.20
2014,07,01,08,39,21.20
2014,07,01,08,40,21.20
2014,07,01,08,41,21.20
2014,07,01,08,42,21.20
2014,07,01,08,43,21.30
2014,07,01,08,44,21.30
2014,07,01,08,45,21.30
2014,07,01,08,46,21.30
2014,07,01,08,47,21.40
2014,07,01,08,48,21.40
2014,07,01,08,49,21.40
2014,07,01,08,50,21.40
2014,07,01,08,51,21.40
2014,07,01,08,52,21.40
2014,07,01,08,53,21.40
2014,07,01,08,54,21.50
2014,07,01,08,55,21.50
2014,07,01,08,56,21.50
2014,07,01,08,57,21.50
2014,07,01,08,58,21.60
2014,07,01,08,59,21.60
2014,07,01,09,00,21.70
2014,07,01,09,01,21.70
2014,07,01,09,02,21.70
2014,07,01,09,03,21.80
2014,07,01,09,04,21.80
2014,07,01,09,05,21.80
2014,07,01,09,13,22.00
2014,07,01,09,14,22.00
2014,07,01,09,15,22.10
2014,07,01,09,16,22.10
2014,07,01,09,17,22.10
2014,07,01,09,18,22.10
2014,07,01,09,19,22.20
2014,07,01,09,20,22.20
2014,07,01,09,21,22.20
2014,07,01,09,22,22.30
2014,07,01,09,23,22.30
2014,07,01,09,24,22.30
2014,07,01,09,25,22.30
2014,07,01,09,26,22.30
2014,07,01,09,27,22.30
2014,07,01,09,28,22.30
2014,07,01,09,29,22.30
2014,07,01,09,30,22.30
2014,07,01,09,31,22.40
2014,07,01,09,32,22.40
2014,07,01,09,33,22.40
2014,07,01,09,34,22.40
2014,07,01,09,35,22.40
2014,07,01,09,36,22.40
2014,07,01,09,37,22.40
2014,07,01,09,38,22.40
2014,07,01,09,39,22.40
2014,07,01,09,40,22.40
2014,07,01,09,41,22.40
2014,07,01,09,42,22.50
2014,07,01,09,43,22.50
2014,07,01,09,44,22.60
2014,07,01,09,45,22.60
2014,07,01,09,46,22.70
2014,07,01,09,47,22.70
2014,07,01,09,48,22.80
2014,07,01,09,49,22.80
2014,07,01,09,50,22.80
2014,07,01,09,51,22.90
2014,07,01,09,52,22.90
2014,07,01,09,53,22.90
2014,07,01,09,54,22.90
2014,07,01,09,55,22.90
2014,07,01,09,56,23.00
2014,07,01,09,57,23.00
2014,07,01,09,58,23.10
2014,07,01,09,59,23.10
2014,07,01,10,00,23.20
2014,07,01,10,01,23.20
2014,07,01,10,02,23.20
2014,07,01,10,03,23.20
2014,07,01,10,04,23.20
2014,07,01,10,05,23.20
2014,07,01,10,06,23.20
2014,07,01,10,07,23.20
2014,07,01,10,08,23.20
2014,07,01,10,09,23.20
2014,07,01,10,10,23.20
2014,07,01,10,11,23.20
2014,07,01,10,12,23.30
2014,07,01,10,13,23.30
2014,07,01,10,14,23.30
2014,07,01,10,15,23.30
2014,07,01,10,16,23.30
2014,07,01,10,17,23.30
2014,07,01,10,18,23.20
2014,07,01,10,19,23.20
2014,07,01,10,20,23.20
2014,07,01,10,21,23.20
2014,07,01,10,22,23.20
2014,07,01,10,23,23.30
2014,07,01,10,24,23.30
2014,07,01,10,25,23.30
2014,07,01,10,26,23.30
2014,07,01,10,27,23.30
2014,07,01,10,28,23.30
2014,07,01,10,29,23.30
2014,07,01,10,30,23.40
2014,07,01,10,31,23.40
2014,07,01,10,32,23.40
2014,07,01,10,33,23.50
2014,07,01,10,34,23.60
2014,07,01,10,35,23.60
2014,07,01,10,36,23.60
2014,07,01,10,37,23.70
2014,07,01,10,38,23.70
2014,07,01,10,39,23.70
2014,07,01,10,40,23.70
2014,07,01,10,41,23.80
2014,07,01,10,42,23.80
2014,07,01,10,43,23.80
2014,07,01,10,44,23.90
2014,07,01,10,45,23.90
2014,07,01,10,46,23.90
2014,07,01,10,47,24.00
2014,07,01,10,48,24.00
2014,07,01,10,49,24.00
2014,07,01,10,50,24.00
2014,07,01,10,51,24.00
2014,07,01,10,52,24.00
2014,07,01,10,53,23.90
2014,07,01,10,54,23.90
2014,07,01,10,55,23.80
2014,07,01,10,56,23.80
2014,07,01,10,57,23.80
2014,07,01,10,58,23.80
2014,07,01,10,59,23.80
2014,07,01,11,00,23.80
2014,07,01,11,01,23.80
2014,07,01,11,02,23.80
2014,07,01,11,03,23.90
2014,07,01,11,04,23.90
2014,07,01,11,05,23.90
2014,07,01,11,06,23.90
2014,07,01,11,07,23.90
2014,07,01,11,08,23.90
2014,07,01,11,09,23.90
2014,07,01,11,10,24.00
2014,07,01,11,11,24.00
2014,07,01,11,12,24.00
2014,07,01,11,13,24.10
2014,07,01,11,14,24.10
2014,07,01,11,15,24.10
2014,07,01,11,16,24.10
2014,07,01,11,17,24.20
2014,07,01,11,18,24.20
2014,07,01,11,19,24.30
2014,07,01,11,20,24.30
2014,07,01,11,21,24.30
2014,07,01,11,22,24.40
2014,07,01,11,23,24.50
2014,07,01,11,24,24.50
2014,07,01,11,25,24.60
2014,07,01,11,26,24.60
2014,07,01,11,27,24.60
2014,07,01,11,28,24.60
2014,07,01,11,29,24.60
2014,07,01,11,30,24.60
2014,07,01,11,31,24.70
2014,07,01,11,32,24.70
2014,07,01,11,33,24.80
2014,07,01,11,34,24.80
2014,07,01,11,35,24.80
2014,07,01,11,36,24.90
2014,07,01,11,37,24.90
2014,07,01,11,38,24.90
2014,07,01,11,39,25.00
2014,07,01,11,40,25.00
2014,07,01,11,41,25.00
2014,07,01,11,42,25.10
2014,07,01,11,43,25.10
2014,07,01,11,44,25.00
2014,07,01,11,45,25.00
2014,07,01,11,46,25.00
2014,07,01,11,47,25.00
2014,07,01,11,48,25.10
2014,07,01,11,49,25.10
2014,07,01,11,50,25.10
2014,07,01,11,51,25.20
2014,07,01,11,52,25.20
2014,07,01,11,53,25.20
2014,07,01,11,54,25.30
2014,07,01,11,55,25.20
2014,07,01,11,56,25.20
2014,07,01,11,57,25.20
2014,07,01,11,58,25.20
2014,07,01,11,59,25.30
2014,07,01,12,00,25.30
2014,07,01,12,01,25.30
2014,07,01,12,02,25.30
2014,07,01,12,03,25.30
2014,07,01,12,04,25.40
2014,07,01,12,05,25.40
2014,07,01,12,06,25.40
2014,07,01,12,07,25.50
2014,07,01,12,08,25.50
2014,07,01,12,09,25.50
2014,07,01,12,10,25.60
2014,07,01,12,11,25.60
2014,07,01,12,12,25.70
2014,07,01,12,13,25.80
2014,07,01,12,14,25.90
2014,07,01,12,15,26.00
2014,07,01,12,16,26.00
2014,07,01,12,17,26.10
2014,07,01,12,18,26.10
2014,07,01,12,19,26.20
2014,07,01,12,20,26.20
2014,07,01,12,21,26.20
2014,07,01,12,22,26.20
2014,07,01,12,23,26.20
2014,07,01,12,24,26.20
2014,07,01,12,25,26.20
2014,07,01,12,26,26.20
2014,07,01,12,27,26.20
2014,07,01,12,28,26.20
2014,07,01,12,29,26.20
2014,07,01,12,30,26.20
2014,07,01,12,31,26.20
2014,07,01,12,32,26.20
2014,07,01,12,33,26.10
2014,07,01,12,34,26.10
2014,07,01,12,35,26.10
2014,07,01,12,36,26.10
2014,07,01,12,37,26.10
2014,07,01,12,38,26.00
2014,07,01,12,39,26.00
2014,07,01,12,40,26.00
2014,07,01,12,41,26.00
2014,07,01,12,42,25.90
2014,07,01,12,43,25.90
2014,07,01,12,44,25.80
2014,07,01,12,45,25.90
2014,07,01,12,46,25.90
2014,07,01,12,47,26.00
2014,07,01,12,48,26.00
2014,07,01,12,49,26.10
2014,07,01,12,50,26.10
2014,07,01,12,51,26.20
2014,07,01,12,52,26.20
2014,07,01,12,53,26.30
2014,07,01,12,54,26.30
2014,07,01,12,55,26.30
2014,07,01,12,56,26.30
2014,07,01,12,57,26.30
2014,07,01,12,58,26.30
2014,07,01,12,59,26.40
2014,07,01,13,00,26.40
2014,07,01,13,01,26.40
2014,07,01,13,02,26.50
2014,07,01,13,03,26.50
2014,07,01,13,04,26.50
2014,07,01,13,05,26.60
2014,07,01,13,06,26.60
2014,07,01,13,07,26.60
2014,07,01,13,08,26.60
2014,07,01,13,09,26.60
2014,07,01,13,10,26.60
2014,07,01,13,11,26.60
2014,07,01,13,12,26.70
2014,07,01,13,13,26.70
2014,07,01,13,14,26.80
2014,07,01,13,15,26.80
2014,07,01,13,16,26.80
2014,07,01,13,17,26.80
2014,07,01,13,18,26.80
2014,07,01,13,19,26.80
2014,07,01,13,20,26.80
2014,07,01,13,21,26.80
2014,07,01,13,22,26.80
2014,07,01,13,23,26.90
2014,07,01,13,24,26.90
2014,07,01,13,25,26.90
2014,07,01,13,26,26.90
2014,07,01,13,27,26.90
2014,07,01,13,28,27.00
2014,07,01,13,29,27.00
2014,07,01,13,30,27.10
2014,07,01,13,31,27.10
2014,07,01,13,32,27.20
2014,07,01,13,33,27.20
2014,07,01,13,34,27.30
2014,07,01,13,35,27.30
2014,07,01,13,36,27.30
2014,07,01,13,37,27.30
2014,07,01,13,38,27.40
2014,07,01,13,39,27.40
2014,07,01,13,40,27.50
2014,07,01,13,41,27.50
2014,07,01,13,42,27.60
2014,07,01,13,43,27.60
2014,07,01,13,44,27.70
2014,07,01,13,45,27.70
2014,07,01,13,46,27.70
2014,07,01,13,47,27.70
2014,07,01,13,48,27.70
2014,07,01,13,49,27.80
2014,07,01,13,50,27.80
2014,07,01,13,51,27.80
2014,07,01,13,52,27.80
2014,07,01,13,53,27.80
2014,07,01,13,54,27.80
2014,07,01,13,55,27.90
2014,07,01,13,56,27.90
2014,07,01,13,57,28.00
2014,07,01,13,58,28.10
2014,07,01,13,59,28.10
2014,07,01,14,00,28.20
2014,07,01,14,01,28.20
2014,07,01,14,02,28.30
2014,07,01,14,03,28.30
2014,07,01,14,04,28.30
2014,07,01,14,05,28.40
2014,07,01,14,06,28.40
2014,07,01,14,07,28.40
2014,07,01,14,08,28.40
2014,07,01,14,09,28.40
2014,07,01,14,10,28.40
2014,07,01,14,11,28.40
2014,07,01,14,12,28.50
2014,07,01,14,13,28.50
2014,07,01,14,14,28.50
2014,07,01,14,15,28.50
2014,07,01,14,16,28.60
2014,07,01,14,17,28.60
2014,07,01,14,18,28.60
2014,07,01,14,19,28.60
2014,07,01,14,20,28.60
2014,07,01,14,21,28.60
2014,07,01,14,22,28.60
2014,07,01,14,23,28.60
2014,07,01,14,24,28.70
2014,07,01,14,25,28.70
2014,07,01,14,26,28.80
2014,07,01,14,27,28.80
2014,07,01,14,28,28.90
2014,07,01,14,29,29.00
2014,07,01,14,30,29.00
2014,07,01,14,31,29.10
2014,07,01,14,32,29.20
2014,07,01,14,33,29.20
2014,07,01,14,34,29.30
2014,07,01,14,35,29.30
2014,07,01,14,36,29.40
2014,07,01,14,37,29.40
2014,07,01,14,38,29.40
2014,07,01,14,39,29.40
2014,07,01,14,40,29.50
2014,07,01,14,41,29.50
2014,07,01,14,42,29.50
2014,07,01,14,43,29.50
2014,07,01,14,44,29.50
2014,07,01,14,45,29.60
2014,07,01,14,46,29.60
2014,07,01,14,47,29.60
2014,07,01,14,48,29.60
2014,07,01,14,49,29.60
2014,07,01,14,50,29.60
2014,07,01,14,51,29.70
2014,07,01,14,52,29.70
2014,07,01,14,53,29.70
2014,07,01,14,54,29.80
2014,07,01,14,55,29.80
2014,07,01,14,56,29.80
2014,07,01,14,57,29.80
2014,07,01,14,58,29.90
2014,07,01,14,59,29.90
2014,07,01,15,00,29.90
2014,07,01,15,01,30.00
2014,07,01,15,02,30.00
2014,07,01,15,03,30.00
2014,07,01,15,04,30.10
2014,07,01,15,05,30.10
2014,07,01,15,06,30.10
2014,07,01,15,07,30.10
2014,07,01,15,08,30.00
2014,07,01,15,09,30.00
2014,07,01,15,10,30.00
2014,07,01,15,11,30.00
2014,07,01,15,12,30.00
2014,07,01,15,13,30.00
2014,07,01,15,14,30.00
2014,07,01,15,15,30.00
2014,07,01,15,16,30.00
2014,07,01,15,17,30.00
2014,07,01,15,18,30.00
2014,07,01,15,19,30.00
2014,07,01,15,20,30.00
2014,07,01,15,21,29.90
2014,07,01,15,22,29.90
2014,07,01,15,23,29.90
2014,07,01,15,24,29.90
2014,07,01,15,25,29.90
2014,07,01,15,26,29.90
2014,07,01,15,27,29.90
2014,07,01,15,28,29.90
2014,07,01,15,29,29.90
2014,07,01,15,30,29.90
2014,07,01,15,31,29.90
2014,07,01,15,32,29.90
2014,07,01,15,33,29.90
2014,07,01,15,34,30.00
2014,07,01,15,35,30.00
2014,07,01,15,36,30.10
2014,07,01,15,37,30.10
2014,07,01,15,38,30.10
2014,07,01,15,39,30.20
2014,07,01,15,40,30.20
2014,07,01,15,41,30.30
2014,07,01,15,42,30.30
2014,07,01,15,43,30.30
2014,07,01,15,44,30.30
2014,07,01,15,45,30.30
2014,07,01,15,46,30.30
2014,07,01,15,47,30.30
2014,07,01,15,48,30.20
2014,07,01,15,49,30.20
2014,07,01,15,50,30.20
2014,07,01,15,51,30.10
2014,07,01,15,52,30.10
2014,07,01,15,53,30.00
2014,07,01,15,54,30.00
2014,07,01,15,55,29.90
2014,07,01,15,56,29.90
2014,07,01,15,57,29.90
2014,07,01,15,58,29.90
2014,07,01,15,59,29.90
2014,07,01,16,00,30.00
2014,07,01,16,01,30.00
2014,07,01,16,02,30.10
2014,07,01,16,03,30.10
2014,07,01,16,04,30.10
2014,07,01,16,05,30.10
2014,07,01,16,06,30.20
2014,07,01,16,07,30.20
2014,07,01,16,08,30.20
2014,07,01,16,09,30.20
2014,07,01,16,10,30.20
2014,07,01,16,11,30.30
2014,07,01,16,12,30.30
2014,07,01,16,13,30.30
2014,07,01,16,14,30.30
2014,07,01,16,15,30.30
2014,07,01,16,16,30.30
2014,07,01,16,17,30.30
2014,07,01,16,18,30.30
2014,07,01,16,19,30.30
2014,07,01,16,20,30.30
2014,07,01,16,21,30.30
2014,07,01,16,22,30.30
2014,07,01,16,23,30.20
2014,07,01,16,24,30.20
2014,07,01,16,25,30.20
2014,07,01,16,26,30.20
2014,07,01,16,27,30.10
2014,07,01,16,28,30.00
2014,07,01,16,29,29.80
2014,07,01,16,30,29.50
2014,07,01,16,31,29.20
2014,07,01,16,32,28.90
2014,07,01,16,33,28.60
2014,07,01,16,34,28.40
2014,07,01,16,35,28.10
2014,07,01,16,36,27.80
2014,07,01,16,37,27.50
2014,07,01,16,38,27.30
2014,07,01,16,39,27.00
2014,07,01,16,40,26.80
2014,07,01,16,41,26.60
2014,07,01,16,42,26.40
2014,07,01,16,43,26.10
2014,07,01,16,44,25.90
2014,07,01,16,45,25.70
2014,07,01,16,46,25.60
2014,07,01,16,47,25.40
2014,07,01,16,48,25.30
2014,07,01,16,49,25.10
2014,07,01,16,50,24.90
2014,07,01,16,51,24.70
2014,07,01,16,52,24.50
2014,07,01,16,53,24.30
2014,07,01,16,54,24.20
2014,07,01,16,55,24.00
2014,07,01,16,56,23.90
2014,07,01,16,57,23.80
2014,07,01,16,58,23.70
2014,07,01,16,59,23.60
2014,07,01,17,00,23.50
2014,07,01,17,01,23.50
2014,07,01,17,02,23.40
2014,07,01,17,03,23.40
2014,07,01,17,04,23.40
2014,07,01,17,05,23.50
2014,07,01,17,06,23.50
2014,07,01,17,07,23.50
2014,07,01,17,08,23.50
2014,07,01,17,09,23.50
2014,07,01,17,10,23.40
2014,07,01,17,11,23.40
2014,07,01,17,12,23.30
2014,07,01,17,13,23.30
2014,07,01,17,14,23.30
2014,07,01,17,15,23.20
2014,07,01,17,16,23.20
2014,07,01,17,17,23.20
2014,07,01,17,18,23.20
2014,07,01,17,19,23.20
2014,07,01,17,20,23.20
2014,07,01,17,21,23.20
2014,07,01,17,22,23.20
2014,07,01,17,23,23.20
2014,07,01,17,24,23.30
2014,07,01,17,25,23.30
2014,07,01,17,26,23.40